LEMUR-2-REMY-COLTON (43884 NORAD) Tracking and Keplerian Element Data

This shows tracking and keplerian element data for the satellite.

Feedback or suggestion? Click here.




ElementValue
Catalog43884
NameLEMUR-2-REMY-COLTON
Epoch Orbit319
Epoch Day17.54430327
Epoch Year2019
RAAN287.7039
Inclination97.7283
Eccentricity0.0011909
Argument of Perigee166.7586
Mean Anonmoly193.395
Mean Motion14.96394326
Decay Rate4.08E-06
L11 43884U 18111J 19017.54430327 .00000408 00000-0 41067-4 0 9999
L22 43884 97.7283 287.7039 0011909 166.7586 193.3950 14.96394326 3190

Live tracking and technical data element details for LEMUR-2-REMY-COLTON (NORAD 43884). LEMUR-2-REMY-COLTON can be tracked NOW for your location showing map with azimuth and elevation plus other details from your city location.

Track the satellite on the map from your city or location and see movement details for azimuth, elevation, latitude, longitude, range, height, and movement on the map or in text.







IsCatalogInMostPopularTable: catalog: 43884, numindb: 16
Update: records affected: 1



GetName: 43884 LEMUR-2-REMY-COLTON

Hit Count: updated at: Fri, 18 Jan 2019 21:57:54 GMT